UAL1623 KLAX-KLAS

Flight info

Callsign UAL1623
Flight time N/A
Altitude 29000
Route ORCKA5 MISEN RNDRZ4
Aircraft B738/M-SDE2E3FGHIRWXY/LB1

Departure

Time 2026-04-21 21:47
Airport Los Angeles International Airport (KLAX)

Arrival

Time N/A
Airport Harry Reid International Airport (KLAS)
Time Latitude Longitude Altitude Speed Heading
2026-04-21 21:13 33.94168 -118.39780 114 ft 0 kts 84°
2026-04-21 21:30 33.94167 -118.39788 114 ft 2 kts 84°
2026-04-21 21:30 33.94166 -118.39804 114 ft 2 kts 84°
2026-04-21 21:30 33.94164 -118.39821 114 ft 2 kts 83°
2026-04-21 21:30 33.94169 -118.39840 115 ft 2 kts 140°
2026-04-21 21:31 33.94179 -118.39846 115 ft 1 kts 172°
2026-04-21 21:31 33.94186 -118.39847 115 ft 0 kts 174°
2026-04-21 21:34 33.94179 -118.39845 115 ft 0 kts 174°
2026-04-21 21:39 33.94168 -118.39844 115 ft 2 kts 174°
2026-04-21 21:40 33.94150 -118.39842 115 ft 3 kts 174°
2026-04-21 21:40 33.94133 -118.39840 115 ft 0 kts 174°
2026-04-21 21:42 33.94121 -118.39838 115 ft 7 kts 174°
2026-04-21 21:43 33.94045 -118.39832 114 ft 15 kts 178°
2026-04-21 21:43 33.93948 -118.39812 114 ft 15 kts 152°
2026-04-21 21:43 33.93910 -118.39712 112 ft 15 kts 84°
2026-04-21 21:43 33.93922 -118.39578 111 ft 22 kts 84°
2026-04-21 21:44 33.93943 -118.39364 109 ft 31 kts 83°
2026-04-21 21:44 33.93968 -118.39128 107 ft 31 kts 83°
2026-04-21 21:44 33.93991 -118.38895 105 ft 31 kts 84°
2026-04-21 21:44 33.94016 -118.38660 105 ft 30 kts 84°
2026-04-21 21:45 33.94039 -118.38431 103 ft 30 kts 83°
2026-04-21 21:45 33.94060 -118.38218 101 ft 17 kts 83°
2026-04-21 21:45 33.94073 -118.38107 101 ft 9 kts 82°
2026-04-21 21:45 33.94075 -118.38045 101 ft 6 kts 105°
2026-04-21 21:46 33.94044 -118.38004 101 ft 7 kts 164°
2026-04-21 21:46 33.94000 -118.38004 101 ft 5 kts 200°
2026-04-21 21:46 33.93984 -118.38038 101 ft 5 kts 261°
2026-04-21 21:46 33.93978 -118.38083 101 ft 10 kts 263°
2026-04-21 21:47 33.93946 -118.38390 103 ft 80 kts 262°
2026-04-21 21:47 33.93857 -118.39251 108 ft 149 kts 262°
2026-04-21 21:47 33.93721 -118.40490 425 ft 179 kts 263°
2026-04-21 21:47 33.93611 -118.41890 1409 ft 179 kts 265°
2026-04-21 21:48 33.93536 -118.43302 1985 ft 198 kts 264°
2026-04-21 21:48 33.93387 -118.44878 2825 ft 204 kts 262°
2026-04-21 21:48 33.93169 -118.46577 3112 ft 240 kts 257°
2026-04-21 21:48 33.92622 -118.48422 3965 ft 251 kts 245°
2026-04-21 21:49 33.91872 -118.50255 4811 ft 261 kts 244°
2026-04-21 21:49 33.91106 -118.52151 5074 ft 278 kts 245°
2026-04-21 21:49 33.90331 -118.54200 4989 ft 284 kts 246°
2026-04-21 21:49 33.89618 -118.56194 4970 ft 270 kts 247°
2026-04-21 21:50 33.88942 -118.58135 4968 ft 256 kts 247°
2026-04-21 21:50 33.88282 -118.60048 4971 ft 254 kts 247°
2026-04-21 21:50 33.87626 -118.61951 4974 ft 256 kts 247°
2026-04-21 21:50 33.86923 -118.63882 4971 ft 260 kts 240°
2026-04-21 21:51 33.85557 -118.65432 5679 ft 277 kts 206°
2026-04-21 21:51 33.83726 -118.65917 7053 ft 274 kts 184°
2026-04-21 21:51 33.81892 -118.65687 8451 ft 269 kts 171°
2026-04-21 21:51 33.80195 -118.64709 9397 ft 288 kts 144°
2026-04-21 21:52 33.79029 -118.62705 10310 ft 309 kts 115°
2026-04-21 21:52 33.78733 -118.60121 10917 ft 336 kts 86°
2026-04-21 21:52 33.79508 -118.57385 11452 ft 359 kts 57°
2026-04-21 21:52 33.81126 -118.55130 12032 ft 372 kts 40°
2026-04-21 21:53 33.83144 -118.53140 12501 ft 390 kts 34°
2026-04-21 21:53 33.85329 -118.51187 13032 ft 406 kts 33°
2026-04-21 21:53 33.87596 -118.49142 13497 ft 424 kts 34°
2026-04-21 21:53 33.89887 -118.46974 14215 ft 433 kts 36°
2026-04-21 21:54 33.92027 -118.44739 14920 ft 442 kts 42°
2026-04-21 21:54 33.94117 -118.41966 15767 ft 448 kts 49°
2026-04-21 21:54 33.96017 -118.38959 16480 ft 456 kts 53°
2026-04-21 21:54 33.97852 -118.35761 17264 ft 462 kts 55°
2026-04-21 21:55 33.99727 -118.32363 18001 ft 469 kts 57°
2026-04-21 21:55 34.01549 -118.29028 18712 ft 475 kts 56°
2026-04-21 21:55 34.03460 -118.25545 19427 ft 482 kts 56°
2026-04-21 21:55 34.05359 -118.22121 20196 ft 485 kts 56°
2026-04-21 21:56 34.07325 -118.18606 20853 ft 492 kts 56°
2026-04-21 21:56 34.09302 -118.15086 21565 ft 496 kts 55°
2026-04-21 21:56 34.11268 -118.11597 22150 ft 502 kts 55°
2026-04-21 21:56 34.13292 -118.08009 22741 ft 509 kts 56°
2026-04-21 21:57 34.15320 -118.04413 23420 ft 512 kts 55°
2026-04-21 21:57 34.17358 -118.00795 23959 ft 518 kts 55°
2026-04-21 21:57 34.19391 -117.97182 24503 ft 523 kts 55°
2026-04-21 21:57 34.21523 -117.93391 25106 ft 528 kts 55°
2026-04-21 21:58 34.23634 -117.89640 25679 ft 532 kts 56°
2026-04-21 21:58 34.25734 -117.85895 26443 ft 531 kts 55°
2026-04-21 21:58 34.27852 -117.82112 27191 ft 530 kts 55°
2026-04-21 21:58 34.29939 -117.78384 27920 ft 529 kts 56°
2026-04-21 21:59 34.32027 -117.74651 28573 ft 530 kts 56°
2026-04-21 21:59 34.34134 -117.70879 29027 ft 533 kts 56°
2026-04-21 21:59 34.36244 -117.67120 29065 ft 535 kts 55°
2026-04-21 22:00 34.40642 -117.59620 29065 ft 526 kts 53°
2026-04-21 22:00 34.45010 -117.52390 29057 ft 527 kts 53°
2026-04-21 22:01 34.49488 -117.44974 29058 ft 527 kts 53°
2026-04-21 22:01 34.54116 -117.37237 29087 ft 525 kts 54°
2026-04-21 22:02 34.58547 -117.29768 29089 ft 528 kts 55°
2026-04-21 22:02 34.62993 -117.22241 29058 ft 524 kts 55°
2026-04-21 22:03 34.67401 -117.14766 29055 ft 527 kts 54°
2026-04-21 22:03 34.71708 -117.07449 29033 ft 524 kts 55°
2026-04-21 22:04 34.76051 -117.00063 29032 ft 525 kts 55°
2026-04-21 22:04 34.80389 -116.92670 29021 ft 524 kts 55°
2026-04-21 22:05 34.84652 -116.85391 29048 ft 525 kts 54°
2026-04-21 22:05 34.88942 -116.78044 29039 ft 523 kts 55°
2026-04-21 22:06 34.93263 -116.70606 29004 ft 525 kts 55°
2026-04-21 22:06 34.97474 -116.63226 28984 ft 524 kts 56°
2026-04-21 22:07 35.01718 -116.55655 28956 ft 522 kts 56°
2026-04-21 22:07 35.05888 -116.48199 28935 ft 523 kts 57°
2026-04-21 22:08 35.10132 -116.40897 28935 ft 523 kts 52°
2026-04-21 22:08 35.15013 -116.33968 28936 ft 522 kts 47°
2026-04-21 22:08 35.17518 -116.30730 28780 ft 521 kts 46°
2026-04-21 22:09 35.20040 -116.27519 28098 ft 519 kts 46°
2026-04-21 22:09 35.22538 -116.24351 27276 ft 514 kts 46°
2026-04-21 22:09 35.25032 -116.21132 26324 ft 508 kts 47°
2026-04-21 22:09 35.27448 -116.17915 25445 ft 499 kts 48°
2026-04-21 22:10 35.29720 -116.14822 24530 ft 492 kts 49°
2026-04-21 22:10 35.31970 -116.11721 23751 ft 485 kts 49°
2026-04-21 22:10 35.34177 -116.08665 22948 ft 482 kts 50°
2026-04-21 22:10 35.36372 -116.05627 22193 ft 471 kts 49°
2026-04-21 22:11 35.38510 -116.02671 21426 ft 463 kts 49°
2026-04-21 22:11 35.40608 -115.99773 20980 ft 446 kts 49°
2026-04-21 22:11 35.42649 -115.96954 20049 ft 449 kts 50°
2026-04-21 22:11 35.44715 -115.94099 19547 ft 442 kts 49°
2026-04-21 22:12 35.46720 -115.91331 19099 ft 434 kts 50°
2026-04-21 22:12 35.48743 -115.88532 18156 ft 441 kts 50°
2026-04-21 22:12 35.50741 -115.85762 17711 ft 432 kts 50°
2026-04-21 22:12 35.52723 -115.83015 17322 ft 423 kts 49°
2026-04-21 22:13 35.54662 -115.80324 16627 ft 424 kts 50°
2026-04-21 22:13 35.56587 -115.77653 16364 ft 410 kts 50°
2026-04-21 22:13 35.58446 -115.75082 16283 ft 394 kts 50°
2026-04-21 22:13 35.60220 -115.72633 16122 ft 376 kts 50°
2026-04-21 22:14 35.61930 -115.70314 16127 ft 362 kts 49°
2026-04-21 22:14 35.63631 -115.68027 16100 ft 365 kts 50°
2026-04-21 22:14 35.65361 -115.65699 16104 ft 367 kts 50°
2026-04-21 22:14 35.67067 -115.63398 16096 ft 367 kts 50°
2026-04-21 22:15 35.68768 -115.61101 16108 ft 366 kts 50°
2026-04-21 22:15 35.70484 -115.58785 16103 ft 367 kts 49°
2026-04-21 22:15 35.72261 -115.56528 16108 ft 367 kts 45°
2026-04-21 22:15 35.74234 -115.54507 16113 ft 369 kts 35°
2026-04-21 22:16 35.76389 -115.52814 16115 ft 369 kts 30°
2026-04-21 22:16 35.78623 -115.51285 16035 ft 363 kts 27°
2026-04-21 22:16 35.80835 -115.49828 15777 ft 356 kts 27°
2026-04-21 22:16 35.83011 -115.48385 15306 ft 357 kts 28°
2026-04-21 22:17 35.85190 -115.46911 14772 ft 359 kts 29°
2026-04-21 22:17 35.87344 -115.45424 14506 ft 350 kts 30°
2026-04-21 22:17 35.89420 -115.43973 14176 ft 345 kts 30°
2026-04-21 22:17 35.91501 -115.42509 13679 ft 348 kts 30°
2026-04-21 22:18 35.93623 -115.41019 13111 ft 351 kts 30°
2026-04-21 22:18 35.95731 -115.39545 12893 ft 342 kts 30°
2026-04-21 22:18 35.97756 -115.38129 12609 ft 336 kts 31°
2026-04-21 22:18 35.99670 -115.36491 11994 ft 340 kts 44°
2026-04-21 22:19 36.01077 -115.34257 11660 ft 325 kts 71°
2026-04-21 22:19 36.01543 -115.31656 11404 ft 303 kts 97°
2026-04-21 22:19 36.01428 -115.29073 10927 ft 301 kts 101°
2026-04-21 22:19 36.01242 -115.26515 10454 ft 301 kts 101°
2026-04-21 22:20 36.01075 -115.23895 10210 ft 294 kts 100°
2026-04-21 22:20 36.00940 -115.21366 10049 ft 283 kts 99°
2026-04-21 22:20 36.00817 -115.18872 9776 ft 279 kts 99°
2026-04-21 22:20 36.00697 -115.16457 9551 ft 272 kts 99°
2026-04-21 22:21 36.00583 -115.14146 9459 ft 261 kts 100°
2026-04-21 22:21 36.00476 -115.11971 9390 ft 249 kts 101°
2026-04-21 22:21 36.00368 -115.09847 9244 ft 242 kts 101°
2026-04-21 22:21 36.00253 -115.07756 8767 ft 251 kts 101°
2026-04-21 22:22 36.00136 -115.05612 8542 ft 247 kts 101°
2026-04-21 22:22 36.00034 -115.03522 8394 ft 240 kts 100°
2026-04-21 22:22 35.99932 -115.01448 8188 ft 236 kts 101°
2026-04-21 22:22 35.99868 -114.99437 8115 ft 225 kts 98°
2026-04-21 22:23 35.99890 -114.97568 8097 ft 215 kts 97°
2026-04-21 22:23 35.99919 -114.95748 8081 ft 213 kts 98°
2026-04-21 22:23 35.99923 -114.93890 8023 ft 215 kts 98°
2026-04-21 22:23 35.99925 -114.92063 8020 ft 214 kts 98°
2026-04-21 22:24 35.99929 -114.90221 8019 ft 215 kts 98°
2026-04-21 22:24 35.99939 -114.88375 8009 ft 215 kts 97°
2026-04-21 22:24 36.00095 -114.86522 8005 ft 225 kts 77°
2026-04-21 22:24 36.00961 -114.84898 8006 ft 237 kts 43°
2026-04-21 22:25 36.02439 -114.84013 8003 ft 242 kts
2026-04-21 22:25 36.04085 -114.84187 8001 ft 237 kts 332°
2026-04-21 22:25 36.05351 -114.85344 8006 ft 220 kts 296°
2026-04-21 22:25 36.06071 -114.86974 8024 ft 215 kts 289°
2026-04-21 22:26 36.06728 -114.88583 7706 ft 216 kts 284°
2026-04-21 22:26 36.07113 -114.90343 7384 ft 209 kts 271°
2026-04-21 22:26 36.07356 -114.92096 7086 ft 210 kts 270°
2026-04-21 22:26 36.07548 -114.93897 6701 ft 213 kts 268°
2026-04-21 22:27 36.07715 -114.95667 6465 ft 206 kts 265°
2026-04-21 22:27 36.07708 -114.97405 6142 ft 202 kts 258°
2026-04-21 22:27 36.07625 -114.99126 5830 ft 200 kts 257°
2026-04-21 22:27 36.07558 -115.00873 5414 ft 206 kts 261°
2026-04-21 22:28 36.07568 -115.02644 4978 ft 212 kts 264°
2026-04-21 22:28 36.07596 -115.04492 4440 ft 218 kts 261°
2026-04-21 22:28 36.07475 -115.06395 3601 ft 235 kts 255°
2026-04-21 22:28 36.07330 -115.08405 2919 ft 242 kts 264°
2026-04-21 22:29 36.07437 -115.10429 2629 ft 225 kts 264°
2026-04-21 22:29 36.07382 -115.12382 2151 ft 202 kts 261°